Year,Month,Day,Hour,Minute,Value (Times are PST for temperature in C)
2016,08,25,00,00,24.70
2016,08,25,00,01,24.70
2016,08,25,00,02,24.70
2016,08,25,00,03,24.70
2016,08,25,00,04,24.70
2016,08,25,00,05,24.70
2016,08,25,00,06,24.70
2016,08,25,00,07,24.70
2016,08,25,00,08,24.70
2016,08,25,00,09,24.60
2016,08,25,00,10,24.60
2016,08,25,00,11,24.60
2016,08,25,00,12,24.50
2016,08,25,00,13,24.50
2016,08,25,00,14,24.40
2016,08,25,00,15,24.40
2016,08,25,00,16,24.40
2016,08,25,00,17,24.40
2016,08,25,00,18,24.30
2016,08,25,00,19,24.30
2016,08,25,00,20,24.30
2016,08,25,00,21,24.20
2016,08,25,00,22,24.20
2016,08,25,00,23,24.20
2016,08,25,00,24,24.10
2016,08,25,00,25,24.10
2016,08,25,00,26,24.10
2016,08,25,00,27,24.00
2016,08,25,00,28,24.00
2016,08,25,00,29,23.90
2016,08,25,00,30,23.90
2016,08,25,00,31,23.90
2016,08,25,00,32,23.80
2016,08,25,00,33,23.80
2016,08,25,00,34,23.80
2016,08,25,00,35,23.70
2016,08,25,00,36,23.70
2016,08,25,00,37,23.70
2016,08,25,00,38,23.70
2016,08,25,00,39,23.70
2016,08,25,00,40,23.60
2016,08,25,00,41,23.60
2016,08,25,00,42,23.60
2016,08,25,00,43,23.60
2016,08,25,00,44,23.60
2016,08,25,00,45,23.50
2016,08,25,00,46,23.50
2016,08,25,00,47,23.40
2016,08,25,00,48,23.40
2016,08,25,00,49,23.40
2016,08,25,00,50,23.40
2016,08,25,00,51,23.30
2016,08,25,00,52,23.30
2016,08,25,00,53,23.30
2016,08,25,00,54,23.30
2016,08,25,00,55,23.20
2016,08,25,00,56,23.20
2016,08,25,00,57,23.20
2016,08,25,00,58,23.20
2016,08,25,00,59,23.20
2016,08,25,01,00,23.20
2016,08,25,01,01,23.20
2016,08,25,01,02,23.10
2016,08,25,01,03,23.10
2016,08,25,01,04,23.10
2016,08,25,01,05,23.10
2016,08,25,01,06,23.00
2016,08,25,01,07,23.00
2016,08,25,01,08,23.00
2016,08,25,01,09,23.00
2016,08,25,01,10,23.00
2016,08,25,01,11,23.00
2016,08,25,01,12,23.00
2016,08,25,01,13,23.00
2016,08,25,01,14,23.10
2016,08,25,01,15,23.10
2016,08,25,01,16,23.10
2016,08,25,01,17,23.10
2016,08,25,01,18,23.20
2016,08,25,01,19,23.20
2016,08,25,01,20,23.20
2016,08,25,01,21,23.20
2016,08,25,01,22,23.20
2016,08,25,01,23,23.30
2016,08,25,01,24,23.30
2016,08,25,01,25,23.30
2016,08,25,01,26,23.30
2016,08,25,01,27,23.30
2016,08,25,01,28,23.30
2016,08,25,01,29,23.30
2016,08,25,01,30,23.30
2016,08,25,01,31,23.30
2016,08,25,01,32,23.30
2016,08,25,01,33,23.20
2016,08,25,01,34,23.20
2016,08,25,01,35,23.20
2016,08,25,01,36,23.20
2016,08,25,01,37,23.20
2016,08,25,01,38,23.20
2016,08,25,01,39,23.20
2016,08,25,01,40,23.20
2016,08,25,01,41,23.20
2016,08,25,01,42,23.20
2016,08,25,01,43,23.20
2016,08,25,01,44,23.20
2016,08,25,01,45,23.20
2016,08,25,01,46,23.20
2016,08,25,01,47,23.20
2016,08,25,01,48,23.20
2016,08,25,01,49,23.20
2016,08,25,01,50,23.20
2016,08,25,01,51,23.20
2016,08,25,01,52,23.20
2016,08,25,01,53,23.10
2016,08,25,01,54,23.10
2016,08,25,01,55,23.10
2016,08,25,01,56,23.10
2016,08,25,01,57,23.10
2016,08,25,01,58,23.10
2016,08,25,01,59,23.00
2016,08,25,02,00,23.00
2016,08,25,02,01,23.00
2016,08,25,02,02,23.00
2016,08,25,02,03,23.00
2016,08,25,02,04,22.90
2016,08,25,02,05,22.90
2016,08,25,02,06,22.90
2016,08,25,02,07,22.80
2016,08,25,02,08,22.80
2016,08,25,02,09,22.80
2016,08,25,02,10,22.80
2016,08,25,02,11,22.80
2016,08,25,02,12,22.80
2016,08,25,02,13,22.80
2016,08,25,02,14,22.80
2016,08,25,02,15,22.70
2016,08,25,02,16,22.70
2016,08,25,02,17,22.70
2016,08,25,02,18,22.70
2016,08,25,02,19,22.70
2016,08,25,02,20,22.60
2016,08,25,02,21,22.60
2016,08,25,02,22,22.50
2016,08,25,02,23,22.40
2016,08,25,02,24,22.40
2016,08,25,02,25,22.30
2016,08,25,02,26,22.20
2016,08,25,02,27,22.20
2016,08,25,02,28,22.20
2016,08,25,02,29,22.10
2016,08,25,02,30,22.10
2016,08,25,02,31,22.10
2016,08,25,02,32,22.10
2016,08,25,02,33,22.00
2016,08,25,02,34,22.00
2016,08,25,02,35,22.00
2016,08,25,02,36,22.00
2016,08,25,02,37,21.90
2016,08,25,02,38,21.90
2016,08,25,02,39,21.90
2016,08,25,02,40,21.90
2016,08,25,02,41,21.90
2016,08,25,02,42,21.80
2016,08,25,02,43,21.80
2016,08,25,02,44,21.80
2016,08,25,02,45,21.80
2016,08,25,02,46,21.80
2016,08,25,02,47,21.80
2016,08,25,02,48,21.80
2016,08,25,02,49,21.80
2016,08,25,02,50,21.70
2016,08,25,02,51,21.70
2016,08,25,02,52,21.70
2016,08,25,02,53,21.70
2016,08,25,02,54,21.70
2016,08,25,02,55,21.70
2016,08,25,02,56,21.70
2016,08,25,02,57,21.70
2016,08,25,02,58,21.70
2016,08,25,02,59,21.70
2016,08,25,03,00,21.70
2016,08,25,03,01,21.70
2016,08,25,03,02,21.70
2016,08,25,03,03,21.80
2016,08,25,03,04,21.80
2016,08,25,03,05,21.80
2016,08,25,03,06,21.80
2016,08,25,03,07,21.80
2016,08,25,03,08,21.80
2016,08,25,03,09,21.80
2016,08,25,03,10,21.90
2016,08,25,03,11,21.90
2016,08,25,03,12,21.90
2016,08,25,03,13,21.90
2016,08,25,03,14,21.90
2016,08,25,03,15,21.90
2016,08,25,03,16,21.90
2016,08,25,03,17,21.90
2016,08,25,03,18,21.90
2016,08,25,03,19,21.90
2016,08,25,03,20,21.90
2016,08,25,03,21,21.90
2016,08,25,03,22,21.90
2016,08,25,03,23,21.90
2016,08,25,03,24,21.90
2016,08,25,03,25,21.90
2016,08,25,03,26,21.90
2016,08,25,03,27,21.90
2016,08,25,03,28,21.90
2016,08,25,03,29,21.90
2016,08,25,03,30,21.90
2016,08,25,03,31,21.90
2016,08,25,03,32,21.90
2016,08,25,03,33,21.80
2016,08,25,03,34,21.80
2016,08,25,03,35,21.80
2016,08,25,03,36,21.80
2016,08,25,03,37,21.80
2016,08,25,03,38,21.80
2016,08,25,03,39,21.80
2016,08,25,03,40,21.80
2016,08,25,03,41,21.70
2016,08,25,03,42,21.70
2016,08,25,03,43,21.70
2016,08,25,03,44,21.70
2016,08,25,03,45,21.60
2016,08,25,03,46,21.60
2016,08,25,03,47,21.60
2016,08,25,03,48,21.60
2016,08,25,03,49,21.50
2016,08,25,03,50,21.40
2016,08,25,03,51,21.40
2016,08,25,03,52,21.40
2016,08,25,03,53,21.30
2016,08,25,03,54,21.30
2016,08,25,03,55,21.20
2016,08,25,03,56,21.20
2016,08,25,03,57,21.20
2016,08,25,03,58,21.10
2016,08,25,03,59,21.10
2016,08,25,04,00,21.10
2016,08,25,04,01,21.10
2016,08,25,04,02,21.10
2016,08,25,04,03,21.10
2016,08,25,04,04,21.10
2016,08,25,04,05,21.10
2016,08,25,04,06,21.10
2016,08,25,04,07,21.10
2016,08,25,04,08,21.10
2016,08,25,04,09,21.10
2016,08,25,04,10,21.10
2016,08,25,04,11,21.10
2016,08,25,04,12,21.10
2016,08,25,04,13,21.10
2016,08,25,04,14,21.10
2016,08,25,04,15,21.10
2016,08,25,04,16,21.10
2016,08,25,04,17,21.10
2016,08,25,04,18,21.00
2016,08,25,04,19,21.00
2016,08,25,04,20,21.00
2016,08,25,04,21,21.00
2016,08,25,04,22,21.00
2016,08,25,04,23,21.00
2016,08,25,04,24,21.00
2016,08,25,04,25,20.90
2016,08,25,04,26,20.90
2016,08,25,04,27,20.90
2016,08,25,04,28,20.90
2016,08,25,04,29,20.80
2016,08,25,04,30,20.80
2016,08,25,04,31,20.80
2016,08,25,04,32,20.80
2016,08,25,04,33,20.70
2016,08,25,04,34,20.70
2016,08,25,04,35,20.70
2016,08,25,04,36,20.70
2016,08,25,04,37,20.70
2016,08,25,04,38,20.70
2016,08,25,04,39,20.70
2016,08,25,04,40,20.70
2016,08,25,04,41,20.70
2016,08,25,04,42,20.70
2016,08,25,04,43,20.70
2016,08,25,04,44,20.70
2016,08,25,04,45,20.70
2016,08,25,04,46,20.60
2016,08,25,04,47,20.60
2016,08,25,04,48,20.60
2016,08,25,04,49,20.60
2016,08,25,04,50,20.60
2016,08,25,04,51,20.60
2016,08,25,04,52,20.60
2016,08,25,04,53,20.60
2016,08,25,04,54,20.60
2016,08,25,04,55,20.60
2016,08,25,04,56,20.60
2016,08,25,04,57,20.60
2016,08,25,04,58,20.60
2016,08,25,04,59,20.50
2016,08,25,05,00,20.50
2016,08,25,05,01,20.50
2016,08,25,05,02,20.50
2016,08,25,05,03,20.50
2016,08,25,05,04,20.40
2016,08,25,05,05,20.40
2016,08,25,05,06,20.40
2016,08,25,05,07,20.40
2016,08,25,05,08,20.40
2016,08,25,05,09,20.40
2016,08,25,05,10,20.40
2016,08,25,05,11,20.30
2016,08,25,05,12,20.40
2016,08,25,05,13,20.40
2016,08,25,05,14,20.40
2016,08,25,05,15,20.40
2016,08,25,05,16,20.40
2016,08,25,05,17,20.40
2016,08,25,05,18,20.40
2016,08,25,05,19,20.40
2016,08,25,05,20,20.40
2016,08,25,05,21,20.40
2016,08,25,05,22,20.40
2016,08,25,05,23,20.40
2016,08,25,05,24,20.40
2016,08,25,05,25,20.40
2016,08,25,05,26,20.50
2016,08,25,05,27,20.60
2016,08,25,05,28,20.60
2016,08,25,05,29,20.60
2016,08,25,05,30,20.70
2016,08,25,05,31,20.80
2016,08,25,05,32,20.80
2016,08,25,05,33,20.80
2016,08,25,05,34,20.90
2016,08,25,05,35,20.90
2016,08,25,05,36,20.90
2016,08,25,05,37,20.90
2016,08,25,05,38,20.90
2016,08,25,05,39,20.90
2016,08,25,05,40,20.90
2016,08,25,05,41,20.90
2016,08,25,05,42,20.90
2016,08,25,05,43,20.90
2016,08,25,05,44,20.90
2016,08,25,05,45,21.00
2016,08,25,05,46,21.00
2016,08,25,05,47,21.00
2016,08,25,05,48,21.00
2016,08,25,05,49,21.00
2016,08,25,05,50,21.00
2016,08,25,05,51,21.00
2016,08,25,05,52,20.90
2016,08,25,05,53,20.90
2016,08,25,05,54,20.90
2016,08,25,05,55,20.90
2016,08,25,05,56,20.90
2016,08,25,05,57,20.90
2016,08,25,05,58,20.80
2016,08,25,05,59,20.80
2016,08,25,06,00,20.80
2016,08,25,06,01,20.80
2016,08,25,06,02,20.80
2016,08,25,06,03,20.80
2016,08,25,06,04,20.80
2016,08,25,06,05,20.80
2016,08,25,06,06,20.80
2016,08,25,06,07,20.90
2016,08,25,06,08,20.90
2016,08,25,06,09,20.90
2016,08,25,06,10,20.90
2016,08,25,06,11,20.90
2016,08,25,06,12,20.90
2016,08,25,06,13,20.90
2016,08,25,06,14,20.90
2016,08,25,06,15,20.90
2016,08,25,06,16,20.90
2016,08,25,06,17,20.90
2016,08,25,06,18,20.90
2016,08,25,06,19,20.90
2016,08,25,06,20,20.80
2016,08,25,06,21,20.80
2016,08,25,06,22,20.80
2016,08,25,06,23,20.80
2016,08,25,06,24,20.80
2016,08,25,06,25,20.70
2016,08,25,06,26,20.70
2016,08,25,06,27,20.70
2016,08,25,06,28,20.60
2016,08,25,06,29,20.60
2016,08,25,06,30,20.50
2016,08,25,06,31,20.50
2016,08,25,06,32,20.40
2016,08,25,06,33,20.40
2016,08,25,06,34,20.30
2016,08,25,06,35,20.30
2016,08,25,06,36,20.20
2016,08,25,06,37,20.20
2016,08,25,06,38,20.20
2016,08,25,06,39,20.10
2016,08,25,06,40,20.10
2016,08,25,06,41,20.10
2016,08,25,06,42,20.00
2016,08,25,06,43,20.00
2016,08,25,06,44,20.00
2016,08,25,06,45,20.00
2016,08,25,06,46,19.90
2016,08,25,06,47,19.90
2016,08,25,06,48,19.90
2016,08,25,06,49,20.00
2016,08,25,06,50,20.00
2016,08,25,06,51,20.00
2016,08,25,06,52,20.00
2016,08,25,06,53,20.00
2016,08,25,06,54,20.00
2016,08,25,06,55,20.10
2016,08,25,06,56,20.10
2016,08,25,06,57,20.10
2016,08,25,06,58,20.10
2016,08,25,06,59,20.10
2016,08,25,07,00,20.20
2016,08,25,07,01,20.20
2016,08,25,07,02,20.20
2016,08,25,07,03,20.30
2016,08,25,07,04,20.30
2016,08,25,07,05,20.40
2016,08,25,07,06,20.40
2016,08,25,07,07,20.50
2016,08,25,07,08,20.50
2016,08,25,07,09,20.60
2016,08,25,07,10,20.60
2016,08,25,07,11,20.60
2016,08,25,07,12,20.70
2016,08,25,07,13,20.70
2016,08,25,07,14,20.80
2016,08,25,07,15,20.80
2016,08,25,07,16,20.80
2016,08,25,07,17,20.90
2016,08,25,07,18,20.90
2016,08,25,07,19,20.90
2016,08,25,07,20,21.00
2016,08,25,07,21,21.00
2016,08,25,07,22,21.10
2016,08,25,07,23,21.10
2016,08,25,07,24,21.10
2016,08,25,07,25,21.10
2016,08,25,07,26,21.20
2016,08,25,07,27,21.20
2016,08,25,07,28,21.30
2016,08,25,07,29,21.30
2016,08,25,07,30,21.30
2016,08,25,07,31,21.40
2016,08,25,07,32,21.40
2016,08,25,07,33,21.50
2016,08,25,07,34,21.50
2016,08,25,07,35,21.60
2016,08,25,07,36,21.60
2016,08,25,07,37,21.60
2016,08,25,07,38,21.70
2016,08,25,07,39,21.70
2016,08,25,07,40,21.70
2016,08,25,07,41,21.70
2016,08,25,07,42,21.80
2016,08,25,07,43,21.80
2016,08,25,07,44,21.80
2016,08,25,07,45,21.90
2016,08,25,07,46,21.90
2016,08,25,07,47,21.90
2016,08,25,07,48,22.00
2016,08,25,07,49,22.00
2016,08,25,07,50,22.10
2016,08,25,07,51,22.10
2016,08,25,07,52,22.10
2016,08,25,07,53,22.20
2016,08,25,07,54,22.20
2016,08,25,07,55,22.20
2016,08,25,07,56,22.20
2016,08,25,07,57,22.30
2016,08,25,07,58,22.30
2016,08,25,07,59,22.30
2016,08,25,08,00,22.40
2016,08,25,08,01,22.40
2016,08,25,08,02,22.40
2016,08,25,08,03,22.40
2016,08,25,08,04,22.50
2016,08,25,08,05,22.60
2016,08,25,08,06,22.60
2016,08,25,08,07,22.70
2016,08,25,08,08,22.70
2016,08,25,08,09,22.60
2016,08,25,08,10,22.60
2016,08,25,08,11,22.60
2016,08,25,08,12,22.50
2016,08,25,08,13,22.50
2016,08,25,08,14,22.40
2016,08,25,08,15,22.40
2016,08,25,08,16,22.30
2016,08,25,08,17,22.30
2016,08,25,08,18,22.20
2016,08,25,08,19,22.20
2016,08,25,08,20,22.10
2016,08,25,08,21,22.00
2016,08,25,08,22,21.90
2016,08,25,08,23,21.80
2016,08,25,08,24,21.80
2016,08,25,08,25,21.80
2016,08,25,08,26,21.80
2016,08,25,08,27,21.80
2016,08,25,08,28,21.80
2016,08,25,08,29,21.80
2016,08,25,08,30,21.80
2016,08,25,08,31,21.80
2016,08,25,08,32,21.80
2016,08,25,08,33,21.80
2016,08,25,08,34,21.70
2016,08,25,08,35,21.70
2016,08,25,08,36,21.70
2016,08,25,08,37,21.70
2016,08,25,08,38,21.80
2016,08,25,08,39,21.80
2016,08,25,08,40,21.80
2016,08,25,08,41,21.80
2016,08,25,08,42,21.90
2016,08,25,08,43,21.90
2016,08,25,08,44,22.00
2016,08,25,08,45,22.10
2016,08,25,08,46,22.10
2016,08,25,08,47,22.20
2016,08,25,08,48,22.20
2016,08,25,08,49,22.20
2016,08,25,08,50,22.20
2016,08,25,08,51,22.30
2016,08,25,08,52,22.30
2016,08,25,08,53,22.30
2016,08,25,08,54,22.30
2016,08,25,08,55,22.40
2016,08,25,08,56,22.40
2016,08,25,08,57,22.40
2016,08,25,08,58,22.50
2016,08,25,08,59,22.50
2016,08,25,09,00,22.50
2016,08,25,09,01,22.50
2016,08,25,09,02,22.60
2016,08,25,09,03,22.60
2016,08,25,09,04,22.60
2016,08,25,09,05,22.60
2016,08,25,09,06,22.60
2016,08,25,09,07,22.60
2016,08,25,09,08,22.60
2016,08,25,09,09,22.70
2016,08,25,09,10,22.70
2016,08,25,09,11,22.70
2016,08,25,09,12,22.70
2016,08,25,09,13,22.70
2016,08,25,09,14,22.70
2016,08,25,09,15,22.70
2016,08,25,09,16,22.70
2016,08,25,09,17,22.70
2016,08,25,09,18,22.70
2016,08,25,09,19,22.80
2016,08,25,09,20,22.80
2016,08,25,09,21,22.80
2016,08,25,09,22,22.80
2016,08,25,09,23,22.80
2016,08,25,09,24,22.90
2016,08,25,09,25,22.90
2016,08,25,09,26,22.90
2016,08,25,09,27,23.00
2016,08,25,09,28,23.10
2016,08,25,09,29,23.10
2016,08,25,09,30,23.20
2016,08,25,09,31,23.20
2016,08,25,09,32,23.30
2016,08,25,09,33,23.30
2016,08,25,09,34,23.40
2016,08,25,09,35,23.40
2016,08,25,09,36,23.40
2016,08,25,09,37,23.50
2016,08,25,09,38,23.50
2016,08,25,09,39,23.60
2016,08,25,09,40,23.60
2016,08,25,09,41,23.60
2016,08,25,09,42,23.60
2016,08,25,09,43,23.50
2016,08,25,09,44,23.50
2016,08,25,09,45,23.30
2016,08,25,09,46,23.20
2016,08,25,09,47,23.00
2016,08,25,09,48,22.90
2016,08,25,09,49,22.80
2016,08,25,09,50,22.70
2016,08,25,09,51,22.60
2016,08,25,09,52,22.50
2016,08,25,09,53,22.50
2016,08,25,09,54,22.40
2016,08,25,09,55,22.40
2016,08,25,09,56,22.40
2016,08,25,09,57,22.40
2016,08,25,09,58,22.40
2016,08,25,09,59,22.40
2016,08,25,10,00,22.50
2016,08,25,10,01,22.60
2016,08,25,10,02,22.60
2016,08,25,10,03,22.70
2016,08,25,10,04,22.80
2016,08,25,10,05,22.80
2016,08,25,10,06,22.80
2016,08,25,10,07,22.90
2016,08,25,10,08,22.90
2016,08,25,10,09,22.90
2016,08,25,10,10,22.90
2016,08,25,10,11,22.90
2016,08,25,10,12,22.80
2016,08,25,10,13,22.80
2016,08,25,10,14,22.80
2016,08,25,10,15,22.80
2016,08,25,10,16,22.80
2016,08,25,10,17,22.70
2016,08,25,10,18,22.70
2016,08,25,10,19,22.80
2016,08,25,10,20,22.70
2016,08,25,10,21,22.70
2016,08,25,10,22,22.70
2016,08,25,10,23,22.70
2016,08,25,10,24,22.70
2016,08,25,10,25,22.70
2016,08,25,10,26,22.80
2016,08,25,10,27,22.80
2016,08,25,10,28,22.90
2016,08,25,10,29,23.00
2016,08,25,10,30,23.10
2016,08,25,10,31,23.20
2016,08,25,10,32,23.30
2016,08,25,10,33,23.40
2016,08,25,10,34,23.50
2016,08,25,10,35,23.70
2016,08,25,10,36,23.80
2016,08,25,10,37,23.80
2016,08,25,10,38,23.90
2016,08,25,10,39,23.90
2016,08,25,10,40,23.90
2016,08,25,10,41,23.90
2016,08,25,10,42,23.90
2016,08,25,10,43,23.90
2016,08,25,10,44,23.80
2016,08,25,10,45,23.80
2016,08,25,10,46,23.80
2016,08,25,10,47,23.80
2016,08,25,10,48,23.80
2016,08,25,10,49,23.80
2016,08,25,10,50,23.80
2016,08,25,10,51,23.80
2016,08,25,10,52,23.90
2016,08,25,10,53,23.90
2016,08,25,10,54,23.90
2016,08,25,10,55,24.00
2016,08,25,10,56,24.00
2016,08,25,10,57,24.00
2016,08,25,10,58,23.90
2016,08,25,10,59,23.90
2016,08,25,11,00,24.00
2016,08,25,11,01,24.00
2016,08,25,11,02,24.00
2016,08,25,11,03,24.00
2016,08,25,11,04,24.00
2016,08,25,11,05,24.00
2016,08,25,11,06,24.10
2016,08,25,11,07,24.10
2016,08,25,11,08,24.20
2016,08,25,11,09,24.20
2016,08,25,11,10,24.20
2016,08,25,11,11,24.30
2016,08,25,11,12,24.30
2016,08,25,11,13,24.30
2016,08,25,11,14,24.30
2016,08,25,11,15,24.30
2016,08,25,11,16,24.30
2016,08,25,11,17,24.30
2016,08,25,11,18,24.30
2016,08,25,11,19,24.30
2016,08,25,11,20,24.30
2016,08,25,11,21,24.30
2016,08,25,11,22,24.30
2016,08,25,11,23,24.30
2016,08,25,11,24,24.30
2016,08,25,11,25,24.30
2016,08,25,11,26,24.40
2016,08,25,11,27,24.40
2016,08,25,11,28,24.50
2016,08,25,11,29,24.50
2016,08,25,11,30,24.70
2016,08,25,11,31,24.80
2016,08,25,11,32,24.90
2016,08,25,11,33,24.90
2016,08,25,11,34,24.80
2016,08,25,11,35,24.80
2016,08,25,11,36,24.70
2016,08,25,11,37,24.60
2016,08,25,11,38,24.60
2016,08,25,11,39,24.50
2016,08,25,11,40,24.50
2016,08,25,11,41,24.40
2016,08,25,11,42,24.30
2016,08,25,11,43,24.30
2016,08,25,11,44,24.30
2016,08,25,11,45,24.30
2016,08,25,11,46,24.20
2016,08,25,11,47,24.30
2016,08,25,11,48,24.30
2016,08,25,11,49,24.30
2016,08,25,11,50,24.20
2016,08,25,11,51,24.20
2016,08,25,11,52,24.20
2016,08,25,11,53,24.20
2016,08,25,11,54,24.30
2016,08,25,11,55,24.40
2016,08,25,11,56,24.50
2016,08,25,11,57,24.60
2016,08,25,11,58,24.70
2016,08,25,11,59,24.70
2016,08,25,12,00,24.80
2016,08,25,12,01,24.80
2016,08,25,12,02,24.90
2016,08,25,12,03,25.00
2016,08,25,12,04,25.10
2016,08,25,12,05,25.10
2016,08,25,12,06,25.20
2016,08,25,12,07,25.30
2016,08,25,12,08,25.30
2016,08,25,12,09,25.40
2016,08,25,12,10,25.40
2016,08,25,12,11,25.40
2016,08,25,12,12,25.30
2016,08,25,12,13,25.20
2016,08,25,12,14,25.10
2016,08,25,12,15,25.10
2016,08,25,12,16,25.10
2016,08,25,12,17,25.10
2016,08,25,12,18,25.10
2016,08,25,12,19,25.10
2016,08,25,12,20,25.10
2016,08,25,12,21,25.20
2016,08,25,12,22,25.20
2016,08,25,12,23,25.10
2016,08,25,12,24,25.00
2016,08,25,12,25,24.90
2016,08,25,12,26,24.80
2016,08,25,12,27,24.70
2016,08,25,12,28,24.70
2016,08,25,12,29,24.70
2016,08,25,12,30,24.70
2016,08,25,12,31,24.80
2016,08,25,12,32,24.80
2016,08,25,12,33,24.90
2016,08,25,12,34,24.90
2016,08,25,12,35,24.90
2016,08,25,12,36,24.80
2016,08,25,12,37,24.80
2016,08,25,12,38,24.80
2016,08,25,12,39,24.80
2016,08,25,12,40,24.90
2016,08,25,12,41,25.00
2016,08,25,12,42,25.00
2016,08,25,12,43,25.20
2016,08,25,12,44,25.30
2016,08,25,12,45,25.30
2016,08,25,12,46,25.30
2016,08,25,12,47,25.40
2016,08,25,12,48,25.50
2016,08,25,12,49,25.50
2016,08,25,12,50,25.60
2016,08,25,12,51,25.80
2016,08,25,12,52,25.90
2016,08,25,12,53,25.90
2016,08,25,12,54,26.10
2016,08,25,12,55,26.20
2016,08,25,12,56,26.20
2016,08,25,12,57,26.30
2016,08,25,12,58,26.20
2016,08,25,12,59,26.20
2016,08,25,13,00,26.20
2016,08,25,13,01,26.20
2016,08,25,13,02,26.20
2016,08,25,13,03,26.30
2016,08,25,13,04,26.30
2016,08,25,13,05,26.30
2016,08,25,13,06,26.30
2016,08,25,13,07,26.30
2016,08,25,13,08,26.40
2016,08,25,13,09,26.40
2016,08,25,13,10,26.50
2016,08,25,13,11,26.50
2016,08,25,13,12,26.40
2016,08,25,13,13,26.40
2016,08,25,13,14,26.30
2016,08,25,13,15,26.40
2016,08,25,13,16,26.50
2016,08,25,13,17,26.50
2016,08,25,13,18,26.60
2016,08,25,13,19,26.60
2016,08,25,13,20,26.60
2016,08,25,13,21,26.60
2016,08,25,13,22,26.70
2016,08,25,13,23,26.70
2016,08,25,13,24,26.70
2016,08,25,13,25,26.60
2016,08,25,13,26,26.70
2016,08,25,13,27,26.80
2016,08,25,13,28,26.80
2016,08,25,13,29,26.90
2016,08,25,13,30,27.00
2016,08,25,13,31,27.10
2016,08,25,13,32,27.10
2016,08,25,13,33,27.20
2016,08,25,13,34,27.20
2016,08,25,13,35,27.30
2016,08,25,13,36,27.30
2016,08,25,13,37,27.40
2016,08,25,13,38,27.40
2016,08,25,13,39,27.50
2016,08,25,13,40,27.50
2016,08,25,13,41,27.50
2016,08,25,13,42,27.40
2016,08,25,13,43,27.40
2016,08,25,13,44,27.40
2016,08,25,13,45,27.40
2016,08,25,13,46,27.40
2016,08,25,13,47,27.40
2016,08,25,13,48,27.40
2016,08,25,13,49,27.40
2016,08,25,13,50,27.50
2016,08,25,13,51,27.60
2016,08,25,13,52,27.60
2016,08,25,13,53,27.70
2016,08,25,13,54,27.80
2016,08,25,13,55,27.80
2016,08,25,13,56,27.80
2016,08,25,13,57,27.80
2016,08,25,13,58,27.90
2016,08,25,13,59,28.00
2016,08,25,14,00,28.00
2016,08,25,14,01,28.10
2016,08,25,14,02,28.20
2016,08,25,14,03,28.20
2016,08,25,14,04,28.20
2016,08,25,14,05,28.20
2016,08,25,14,06,28.20
2016,08,25,14,07,28.20
2016,08,25,14,08,28.30
2016,08,25,14,09,28.40
2016,08,25,14,10,28.40
2016,08,25,14,11,28.50
2016,08,25,14,12,28.60
2016,08,25,14,13,28.60
2016,08,25,14,14,28.60
2016,08,25,14,15,28.60
2016,08,25,14,16,28.60
2016,08,25,14,17,28.60
2016,08,25,14,18,28.50
2016,08,25,14,19,28.40
2016,08,25,14,20,28.30
2016,08,25,14,21,28.30
2016,08,25,14,22,28.20
2016,08,25,14,23,28.20
2016,08,25,14,24,28.20
2016,08,25,14,25,28.30
2016,08,25,14,26,28.30
2016,08,25,14,27,28.40
2016,08,25,14,28,28.40
2016,08,25,14,29,28.40
2016,08,25,14,30,28.40
2016,08,25,14,31,28.30
2016,08,25,14,32,28.30
2016,08,25,14,33,28.30
2016,08,25,14,34,28.30
2016,08,25,14,35,28.20
2016,08,25,14,36,28.20
2016,08,25,14,37,28.20
2016,08,25,14,38,28.30
2016,08,25,14,39,28.30
2016,08,25,14,40,28.30
2016,08,25,14,41,28.30
2016,08,25,14,42,28.40
2016,08,25,14,43,28.40
2016,08,25,14,44,28.40
2016,08,25,14,45,28.40
2016,08,25,14,46,28.40
2016,08,25,14,47,28.50
2016,08,25,14,48,28.50
2016,08,25,14,49,28.60
2016,08,25,14,50,28.60
2016,08,25,14,51,28.70
2016,08,25,14,52,28.70
2016,08,25,14,53,28.70
2016,08,25,14,54,28.70
2016,08,25,14,55,28.70
2016,08,25,14,56,28.70
2016,08,25,14,57,28.80
2016,08,25,14,58,28.90
2016,08,25,14,59,28.90
2016,08,25,15,00,28.90
2016,08,25,15,01,28.90
2016,08,25,15,02,28.90
2016,08,25,15,03,28.80
2016,08,25,15,04,28.80
2016,08,25,15,05,28.90
2016,08,25,15,06,29.00
2016,08,25,15,07,29.00
2016,08,25,15,08,29.10
2016,08,25,15,09,29.20
2016,08,25,15,10,29.20
2016,08,25,15,11,29.20
2016,08,25,15,12,29.20
2016,08,25,15,13,29.20
2016,08,25,15,14,29.20
2016,08,25,15,15,29.10
2016,08,25,15,16,29.20
2016,08,25,15,17,29.20
2016,08,25,15,18,29.20
2016,08,25,15,19,29.20
2016,08,25,15,20,29.20
2016,08,25,15,21,29.20
2016,08,25,15,22,29.10
2016,08,25,15,23,29.10
2016,08,25,15,24,29.00
2016,08,25,15,25,28.90
2016,08,25,15,26,28.80
2016,08,25,15,27,28.80
2016,08,25,15,28,28.80
2016,08,25,15,29,28.80
2016,08,25,15,30,28.90
2016,08,25,15,31,28.90
2016,08,25,15,32,29.00
2016,08,25,15,33,29.00
2016,08,25,15,34,29.00
2016,08,25,15,35,29.00
2016,08,25,15,36,29.10
2016,08,25,15,37,29.10
2016,08,25,15,38,29.10
2016,08,25,15,39,29.20
2016,08,25,15,40,29.30
2016,08,25,15,41,29.40
2016,08,25,15,42,29.40
2016,08,25,15,43,29.40
2016,08,25,15,44,29.40
2016,08,25,15,45,29.40
2016,08,25,15,46,29.40
2016,08,25,15,47,29.40
2016,08,25,15,48,29.40
2016,08,25,15,49,29.50
2016,08,25,15,50,29.50
2016,08,25,15,51,29.60
2016,08,25,15,52,29.60
2016,08,25,15,53,29.70
2016,08,25,15,54,29.80
2016,08,25,15,55,29.80
2016,08,25,15,56,29.90
2016,08,25,15,57,29.90
2016,08,25,15,58,30.00
2016,08,25,15,59,30.10
2016,08,25,16,00,30.10
2016,08,25,16,01,30.10
2016,08,25,16,02,30.10
2016,08,25,16,03,30.00
2016,08,25,16,04,30.00
2016,08,25,16,05,30.00
2016,08,25,16,06,30.00
2016,08,25,16,07,30.10
2016,08,25,16,08,30.20
2016,08,25,16,09,30.20
2016,08,25,16,10,30.20
2016,08,25,16,11,30.10
2016,08,25,16,12,30.10
2016,08,25,16,13,30.20
2016,08,25,16,14,30.20
2016,08,25,16,15,30.20
2016,08,25,16,16,30.20
2016,08,25,16,17,30.10
2016,08,25,16,18,30.10
2016,08,25,16,19,30.10
2016,08,25,16,20,30.10
2016,08,25,16,21,30.10
2016,08,25,16,22,30.10
2016,08,25,16,23,30.10
2016,08,25,16,24,30.20
2016,08,25,16,25,30.10
2016,08,25,16,26,30.10
2016,08,25,16,27,30.00
2016,08,25,16,28,30.00
2016,08,25,16,29,30.00
2016,08,25,16,30,30.10
2016,08,25,16,31,30.10
2016,08,25,16,32,30.10
2016,08,25,16,33,30.20
2016,08,25,16,34,30.20
2016,08,25,16,35,30.20
2016,08,25,16,36,30.20
2016,08,25,16,37,30.30
2016,08,25,16,38,30.40
2016,08,25,16,39,30.40
2016,08,25,16,40,30.50
2016,08,25,16,41,30.60
2016,08,25,16,42,30.60
2016,08,25,16,43,30.60
2016,08,25,16,44,30.60
2016,08,25,16,45,30.60
2016,08,25,16,46,30.60
2016,08,25,16,47,30.50
2016,08,25,16,48,30.40
2016,08,25,16,49,30.40
2016,08,25,16,50,30.40
2016,08,25,16,51,30.50
2016,08,25,16,52,30.60
2016,08,25,16,53,30.60
2016,08,25,16,54,30.60
2016,08,25,16,55,30.60
2016,08,25,16,56,30.60
2016,08,25,16,57,30.50
2016,08,25,16,58,30.50
2016,08,25,16,59,30.50
2016,08,25,17,00,30.60
2016,08,25,17,01,30.60
2016,08,25,17,02,30.60
2016,08,25,17,03,30.60
2016,08,25,17,04,30.60
2016,08,25,17,05,30.60
2016,08,25,17,06,30.60
2016,08,25,17,07,30.70
2016,08,25,17,08,30.80
2016,08,25,17,09,30.80
2016,08,25,17,10,30.80
2016,08,25,17,11,30.90
2016,08,25,17,12,30.90
2016,08,25,17,13,31.00
2016,08,25,17,14,31.10
2016,08,25,17,15,31.00
2016,08,25,17,16,31.00
2016,08,25,17,17,31.10
2016,08,25,17,18,31.10
2016,08,25,17,19,31.10